This demonstration page uses our WeatherBlox Daily Observations layout. Learn more.

Left ArrowRight Arrow

Hourly Observations for October 11, 2016

Temp ( °F °C ) Dew Point ( °F °C ) Humidity (%) Winds ( mph kmh ) Pressure ( in mb ) Visibility ( mi km ) Precip ( " mm )
12:53 am 00:53 Clear 67 19.4 59 15 76 76 SE 9 15 30.01 1016 10 16 0.00 0.00
1:53 am 01:53 Clear 65 18.3 59 15 81 81 SE 9 15 29.99 1016 10 16 0.00 0.00
2:53 am 02:53 Clear 64 17.8 59 15 84 84 SE 9 15 29.99 1016 10 16 0.00 0.00
3:53 am 03:53 Clear 63 17.2 59 15 87 87 SE 9 15 29.98 1015 10 16 0.00 0.00
4:53 am 04:53 Clear 62 16.7 58 14.4 86 86 SE 7 11 29.97 1015 10 16 0.00 0.00
5:53 am 05:53 Clear 61 16.1 58 14.4 90 90 ESE 7 11 29.97 1015 10 16 0.00 0.00
6:53 am 06:53 Clear 61 16.1 58 14.4 90 90 SE 6 9 29.99 1016 10 16 0.00 0.00
7:53 am 07:53 Clear 60 15.6 57 13.9 90 90 SE 7 11 30.01 1016 10 16 0.00 0.00
8:53 am 08:53 Sunny 62 16.7 57 13.9 84 84 SE 6 9 30.03 1017 10 16 0.00 0.00
9:53 am 09:53 Sunny 68 20 59 15 73 73 SSE 6 9 30.04 1017 10 16 0.00 0.00
10:53 am 10:53 Sunny 76 24.4 60 15.6 58 58 Calm 30.03 1017 10 16 0.00 0.00
11:53 am 11:53 Sunny 80 26.7 60 15.6 51 51 S 3 6 30.01 1016 10 16 0.00 0.00
12:53 pm 12:53 Sunny 84 28.9 59 15 43 43 SSW 7 11 29.98 1015 10 16 0.00 0.00
1:53 pm 13:53 Sunny 87 30.6 58 14.4 37 37 SW 9 15 29.96 1015 10 16 0.00 0.00
2:53 pm 14:53 Sunny 89 31.7 55 12.8 31 31 SSW 10 17 29.92 1013 10 16 0.00 0.00
3:53 pm 15:53 Sunny 90 32.2 52 11.1 27 27 SW 7 11 29.90 1013 10 16 0.00 0.00
4:53 pm 16:53 Sunny 90 32.2 52 11.1 27 27 SW 8 13 29.89 1012 10 16 0.00 0.00
5:53 pm 17:53 Sunny 89 31.7 53 11.7 29 29 SSW 5 7 29.88 1012 10 16 0.00 0.00
6:53 pm 18:53 Sunny 87 30.6 55 12.8 34 34 S 7 11 29.88 1012 10 16 0.00 0.00
7:53 pm 19:53 Clear 77 25 57 13.9 50 50 SSE 9 15 29.90 1012 10 16 0.00 0.00
8:53 pm 20:53 Clear 75 23.9 56 13.3 52 52 SSE 7 11 29.91 1013 10 16 0.00 0.00
9:53 pm 21:53 Clear 74 23.3 55 12.8 52 52 SE 10 17 29.91 1013 10 16 0.00 0.00
10:53 pm 22:53 Clear 75 23.9 60 15.6 60 60 SSE 14 22 29.90 1013 10 16 0.00 0.00
11:53 pm 23:53 Clear 72 22.2 61 16.1 68 68 SE 13 20 29.91 1013 10 16 0.00 0.00

Powered by AerisWeather